Weather History for KTRL - August, 2014

Change the Weather History Date:

Tuesday, August 12, 2014

  Actual Average (KDFW) Record (KDFW)
Temperature  
Mean Temperature 83 °F 86 °F  
Max Temperature 95 °F 97 °F 106 °F (1999)
Min Temperature 71 °F 76 °F 60 °F (1967)
Degree Days  
Heating Degree Days 0 0  
Month to date heating degree days 0  
Since 1 June heating degree days 0  
Since 1 July heating degree days 0  
Cooling Degree Days 18 21  
Month to date cooling degree days 252  
Year to date cooling degree days 1796  
Since 1 June cooling degree days 1374  
Growing Degree Days 33 (Base 50)    
Moisture  
Dew Point 61 °F    
Average Humidity 54    
Maximum Humidity 87    
Minimum Humidity 21    
Precipitation  
Precipitation 0.00 in 0.05 in 1.52 in (1991)
Month to date precipitation 0.66  
Year to date precipitation 22.86  
Sea Level Pressure  
Sea Level Pressure 30.02 in    
Wind  
Wind Speed 5 mph (NNE)    
Max Wind Speed 15 mph    
Max Gust Speed 23 mph    
Visibility 10 miles    
Events      
T = Trace of Precipitation, MM = Missing Value Source: NWS Daily Summary

Daily Weather History Graph

Daily Weather History Graph

Search for Another Location

Airport or City:

Trip Planner

Search our weather history database for the weather conditions in past years. The results will help you decide how hot, cold, wet, or windy it might be!

Date:

Astronomy

Aug. 12, 2014 Rise Set
Actual Time 6:46 AM CDT 8:13 PM CDT
Civil Twilight 6:20 AM CDT 8:39 PM CDT
Nautical Twilight 5:49 AM CDT 9:10 PM CDT
Astronomical Twilight 5:16 AM CDT 9:43 PM CDT
Moon 9:33 PM CDT (8/12) 8:55 AM CDT (8/12)
Length of Visible Light 14h 18m
Length of Day
13h 26m
Waning Gibbous, 94% of the Moon is Illuminated
Aug 12
Waning Gibbous
Aug 17
Last Quarter
Aug 25
New
Sep 2
First Quarter
Sep 8
Full

Hourly Weather History & Observations

Time (CDT) Temp. Heat Index Dew Point Humidity Pressure Visibility Wind Dir Wind Speed Gust Speed Precip Events Conditions
12:53 AM 78.1 °F - 70.0 °F 76% 30.02 in 10.0 mi Calm Calm - N/A   Clear
1:53 AM 77.0 °F - 72.0 °F 84% 30.02 in 10.0 mi NNE 3.5 mph - N/A   Clear
2:53 AM 75.9 °F - 71.1 °F 85% 30.01 in 10.0 mi Calm Calm - N/A   Clear
3:53 AM 75.9 °F - 71.1 °F 85% 30.01 in 10.0 mi Calm Calm - N/A   Clear
4:53 AM 75.0 °F - 70.0 °F 84% 30.01 in 10.0 mi Calm Calm - N/A   Clear
5:53 AM 73.9 °F - 70.0 °F 87% 30.02 in 10.0 mi WSW 5.8 mph - N/A   Scattered Clouds
6:53 AM 73.9 °F - 70.0 °F 87% 30.03 in 10.0 mi Calm Calm - N/A   Clear
7:53 AM 79.0 °F - 71.1 °F 77% 30.04 in 10.0 mi North 5.8 mph - N/A   Partly Cloudy
8:53 AM 82.0 °F 85.9 °F 70.0 °F 67% 30.06 in 10.0 mi NNE 10.4 mph - N/A   Clear
9:53 AM 86.0 °F 89.4 °F 68.0 °F 55% 30.06 in 10.0 mi North 10.4 mph - N/A   Clear
10:53 AM 90.0 °F 90.3 °F 62.1 °F 39% 30.06 in 10.0 mi North 11.5 mph - N/A   Clear
12:53 PM 91.9 °F 89.5 °F 53.1 °F 27% 30.05 in 10.0 mi NNW 10.4 mph 20.7 mph N/A   Clear
1:53 PM 93.0 °F 91.1 °F 55.0 °F 28% 30.04 in 10.0 mi NNE 13.8 mph 19.6 mph N/A   Clear
2:53 PM 93.9 °F - 51.1 °F 23% 30.02 in 10.0 mi North 12.7 mph 23.0 mph N/A   Clear
3:53 PM 93.9 °F - 51.1 °F 23% 30.00 in 10.0 mi North 15.0 mph 21.9 mph N/A   Clear
4:53 PM 93.0 °F - 48.0 °F 21% 29.99 in 10.0 mi NNE 15.0 mph - N/A   Clear
5:53 PM 91.9 °F - 51.1 °F 25% 29.98 in 10.0 mi NNE 13.8 mph - N/A   Clear
6:53 PM 89.1 °F - 52.0 °F 28% 29.98 in 10.0 mi NNE 15.0 mph 19.6 mph N/A   Clear
7:53 PM 86.0 °F - 52.0 °F 31% 29.99 in 10.0 mi NNE 8.1 mph - N/A   Clear
8:53 PM 80.1 °F 80.0 °F 54.0 °F 40% 30.00 in 10.0 mi NNE 5.8 mph - N/A   Clear
9:53 PM 77.0 °F - 55.0 °F 47% 30.02 in 10.0 mi North 4.6 mph - N/A   Clear
10:53 PM 73.9 °F - 57.0 °F 55% 30.03 in 10.0 mi North 4.6 mph - N/A   Clear
11:53 PM 71.1 °F - 59.0 °F 66% 30.04 in 10.0 mi ENE 3.5 mph - N/A   Clear